Location: Newark
(45.8667°N, 9.7333°E)
Time: 18:41:54
(UTC+00:00)

A-11 Canister half - Pass Details

Date: 25 January 2020
Orbit: 1517 x 1683 km, 47.2° (Epoch: 26 February)

Event Time Altitude Azimuth Distance (km) Brightness Sun altitude
Rises 22:18:38 0° 220° (SW) 4,754 - -58.9°
Reaches altitude 10° 22:21:51 10° 215° (SW) 3,750 - -59.3°
Maximum altitude 22:30:49 50° 144° (SE) 1,881 - -60.1°
Drops below altitude 10° 22:39:36 10° 73° (ENE) 3,684 - -60.8°
Sets 22:42:43 0° 68° (ENE) 4,665 - -61.1°
